TimeMST,TemperatureF,Dew PointF,Humidity,Sea Level PressureIn,VisibilityMPH,Wind Direction,Wind SpeedMPH,Gust SpeedMPH,PrecipitationIn,Events,Conditions,WindDirDegrees,DateUTC
12:53 AM,33.1,21.9,64,29.83,10.0,SSE,11.5,-,N/A,,Clear,160,2013-01-10 07:53:00
1:53 AM,33.1,21.0,61,29.77,10.0,SSE,12.7,-,N/A,,Clear,160,2013-01-10 08:53:00
2:53 AM,32.0,21.0,64,29.75,10.0,SE,10.4,-,N/A,,Clear,130,2013-01-10 09:53:00
3:53 AM,30.9,19.0,61,29.71,10.0,SE,10.4,-,N/A,,Clear,140,2013-01-10 10:53:00
4:53 AM,33.1,21.0,61,29.66,10.0,SSE,12.7,-,N/A,,Clear,160,2013-01-10 11:53:00
5:53 AM,35.1,21.0,57,29.64,10.0,SSE,10.4,-,N/A,,Clear,150,2013-01-10 12:53:00
6:53 AM,37.9,21.9,53,29.60,10.0,SSE,18.4,-,N/A,,Clear,160,2013-01-10 13:53:00
7:53 AM,37.0,23.0,57,29.61,10.0,SSE,10.4,-,N/A,,Clear,150,2013-01-10 14:53:00
8:53 AM,35.1,23.0,61,29.61,10.0,SSE,12.7,-,N/A,,Clear,150,2013-01-10 15:53:00
9:53 AM,37.0,23.0,57,29.59,10.0,East,9.2,-,N/A,,Clear,80,2013-01-10 16:53:00
10:53 AM,41.0,23.0,49,29.55,10.0,South,19.6,-,N/A,,Clear,180,2013-01-10 17:53:00
11:53 AM,43.0,24.1,47,29.52,10.0,SSE,15.0,-,N/A,,Clear,160,2013-01-10 18:53:00
12:53 PM,44.1,27.0,51,29.49,10.0,South,9.2,-,N/A,,Clear,170,2013-01-10 19:53:00
1:53 PM,44.1,26.1,49,29.46,10.0,SSE,17.3,-,N/A,,Clear,160,2013-01-10 20:53:00
2:53 PM,44.1,27.0,51,29.46,10.0,SSE,18.4,-,N/A,,Clear,160,2013-01-10 21:53:00
3:53 PM,43.0,27.0,53,29.45,10.0,SSE,16.1,-,N/A,,Clear,160,2013-01-10 22:53:00
4:53 PM,41.0,26.1,55,29.44,10.0,SSE,17.3,-,N/A,,Clear,160,2013-01-10 23:53:00
5:53 PM,36.0,26.1,67,29.45,10.0,SSE,10.4,-,N/A,,Clear,160,2013-01-11 00:53:00
6:53 PM,36.0,25.0,64,29.43,10.0,SSE,10.4,-,N/A,,Clear,150,2013-01-11 01:53:00
7:53 PM,33.1,25.0,72,29.45,10.0,WSW,5.8,-,N/A,,Clear,240,2013-01-11 02:53:00
8:53 PM,30.9,24.1,76,29.49,10.0,North,5.8,-,N/A,,Clear,350,2013-01-11 03:53:00
9:53 PM,28.0,24.1,85,29.51,10.0,North,11.5,-,N/A,,Clear,360,2013-01-11 04:53:00
10:30 PM,26.6,21.2,80,29.45,10.0,NNW,12.7,-,N/A,,Mostly Cloudy,340,2013-01-11 05:30:00
10:53 PM,26.1,21.9,84,29.51,10.0,NNW,15.0,-,N/A,,Overcast,340,2013-01-11 05:53:00
11:30 PM,24.8,19.4,80,29.46,10.0,NNW,9.2,-,N/A,,Mostly Cloudy,340,2013-01-11 06:30:00
11:37 PM,24.8,21.2,86,29.46,10.0,NNW,5.8,-,N/A,,Mostly Cloudy,340,2013-01-11 06:37:00
11:53 PM,25.0,19.9,81,29.52,10.0,NNW,9.2,-,N/A,,Overcast,330,2013-01-11 06:53:00